Hourly Data Report for September 01, 2018

TORONTO CITY
ONTARIO
Current Station Operator: ECCC - MSC

43°40'00.000" N
79°24'00.000" W
112.50 m
6158355
71508
XTO

Download Data

Hourly Data (September 2018)
Hourly Data Report for September 1, 2018
TIME
LST
Temp Definition
°C
Dew Point Definition
°C
Rel Hum Definition
%
Precip. Amount Definition
mm

Wind Dir Definition
10's deg

Wind Spd Definition
km/h
Visibility Definition
km
Stn Press Definition
kPa
Hmdx Definition


Wind Chill Definition


Weather Definition


00:00 19.2 15.3 78 0.0 LegendMM LegendMM   100.77     LegendNANA
01:00 17.8 14.7 82 0.0 LegendMM LegendMM   100.80     LegendNANA
02:00 17.6 14.9 84 0.0 LegendMM LegendMM   100.76     LegendNANA
03:00 17.9 15.2 84 0.0 LegendMM LegendMM   100.75     LegendNANA
04:00 17.9 15.3 85 0.0 LegendMM LegendMM   100.74     LegendNANA
05:00 17.3 14.8 86 0.0 LegendMM LegendMM   100.72     LegendNANA
06:00 19.0 17.1 89 0.0 LegendMM LegendMM   100.74     LegendNANA
07:00 19.2 17.6 90 0.0 LegendMM LegendMM   100.77     LegendNANA
08:00 20.0 18.2 90 0.0 LegendMM LegendMM   100.78 26   LegendNANA
09:00 22.3 18.1 77 0.0 LegendMM LegendMM   100.81 28   LegendNANA
10:00 23.6 18.7 74 0.0 LegendMM LegendMM   100.85 30   LegendNANA
11:00 24.7 19.5 73 0.0 LegendMM LegendMM   100.80 32   LegendNANA
12:00 26.1 19.5 67 0.0 LegendMM LegendMM   100.78 33   LegendNANA
13:00 27.3 19.6 63 0.0 LegendMM LegendMM   100.71 35   LegendNANA
14:00 26.5 18.6 62 0.0 LegendMM LegendMM   100.66 33   LegendNANA
15:00 26.7 19.3 64 0.0 LegendMM LegendMM   100.56 34   LegendNANA
16:00 26.4 19.9 68 0.0 LegendMM LegendMM   100.49 34   LegendNANA
17:00 25.2 20.1 74 0.0 LegendMM LegendMM   100.47 33   LegendNANA
18:00 24.5 20.3 77 0.0 LegendMM LegendMM   100.52 32   LegendNANA
19:00 24.2 20.1 78 0.0 LegendMM LegendMM   100.46 32   LegendNANA
20:00 24.3 20.2 78 0.0 LegendMM LegendMM   100.47 32   LegendNANA
21:00 24.3 20.3 79 0.0 LegendMM LegendMM   100.50 32   LegendNANA
22:00 24.3 19.3 74 0.0 LegendMM LegendMM   100.50 31   LegendNANA
23:00 23.8 19.1 75 0.0 LegendMM LegendMM   100.49 31   LegendNANA

Notes on Data Quality.

Legend

  • E = Estimated
  • M = Missing
  • NA = Not Available*
  • [empty] = Indicates an unobserved value
Date modified: